Weather in Obukhovo

Russia / Kirov Oblast     57˚34′17″N   48˚36′37″E
temp.,
°C
wind,
m/s
gust,
m/s
humid.,
%
clouds,
%
prec.,
mm/h
press.,
hPa
HPBL,
m
17 january, sun
sun1700:00−14˚nnw3596100 0.3 997142
03:00−14˚nnw3796100 0.4 998264
06:00−15˚nw4795100 0.2 999285
09:00−16˚nw4895100 0.3 1002336
12:00−18˚nw4694100 0.0 1007312
15:00−21˚nw349677 0.0 101066
18:00−24˚nw23960 0.0 101320
21:00−25˚nw129720 0.0 101620
18 january, mon
mon1800:00−26˚w119827 0.0 101719
03:00−26˚wsw229728 0.0 101820
06:00−26˚sw239751 0.0 101820
09:00−26˚wsw239757 0.0 101924
12:00−22˚sw359545 0.0 1019147
15:00−23˚sw239628 0.0 101822
18:00−24˚wsw22964 0.0 101920
21:00−25˚sw239631 0.0 101920
19 january, tue
tue1900:00−26˚nw119891 0.0 101920
03:00−25˚se129693 0.0 101820
06:00−25˚se1195100 0.0 101820
09:00−24˚e1297100 0.0 101920
12:00−22˚ene1295100 0.0 1018113
15:00−22˚ne229899 0.0 101723
18:00−23˚ne2396100 0.0 101732
21:00−24˚nne2396100 0.0 101725
20 january, wed
wed2000:00−25˚nne239571 0.0 101721
03:00−25˚nne238781 0.0 101723
06:00−26˚n338292 0.0 101722
09:00−25˚nne238192 0.0 101820
12:00−22˚nnw228726 0.0 101866
15:00−23˚nw228813 0.0 101820
18:00−26˚wnw12879 0.0 102020
21:00−26˚wsw238110 0.0 101919
21 january, thu
thu2100:00−23˚sw369487 0.0 1019102
03:00−20˚wsw499793 0.1 1018224
06:00−18˚wsw4796100 0.4 1017252
09:00−16˚wsw4896100 0.6 1016275
12:00−13˚wsw4794100 0.3 1016322
15:00−12˚w5994100 0.5 1016348
18:00−15˚wsw499693 0.1 1016202
21:00−15˚wsw379693 0.3 1015201